Location: Staunton
(38.1490°N, 79.0720°W)
Time: 06:08:28
(UTC-04:00)

Envisat - Visible Passes

Search period start: 26 September 2021 00:00
Search period end: 06 October 2021 00:00
Orbit: 764 x 766 km, 98.2° (Epoch: 25 September)

Date Brightness Start Highest point End Pass type
(mag) Time Alt. Az. Time Alt. Az. Time Alt. Az.
26 Sep 3.9 06:04:29 10° NNE 06:09:27 52° E 06:14:23 10° S visible
27 Sep 5.5 05:28:28 10° NE 05:32:25 22° E 05:36:21 10° SE visible
28 Sep 3.0 06:29:42 10° NNE 06:34:48 87° WNW 06:39:53 10° SSW visible
29 Sep 4.4 05:53:07 10° NNE 05:57:54 40° E 06:02:39 10° SSE visible
30 Sep 5.8 05:17:28 10° NE 05:20:49 17° E 05:24:08 10° SE visible
01 Oct 3.3 06:18:12 10° NNE 06:23:18 73° ESE 06:28:21 10° S visible
02 Oct 4.9 05:41:50 10° NE 05:46:20 31° E 05:50:48 10° SSE visible
03 Oct 6.0 05:06:45 10° ENE 05:09:11 13° E 05:11:36 10° ESE visible
03 Oct 3.0 06:43:34 10° N 06:48:36 63° WNW 06:53:35 10° SSW visible
04 Oct 3.7 06:06:46 10° NNE 06:11:46 56° E 06:16:44 10° S visible
05 Oct 5.3 05:30:39 10° NE 05:34:45 24° E 05:38:50 10° SSE visible
